www.pogodaiklimat.ru
ПОГОДА в Полоцке

Архив погоды в Полоцке (Витебская область, Беларусь)

Время
(UTC), дата
06 6.06
09 6.06
12 6.06
15 6.06
18 6.06
21 6.06
00 7.06
03 7.06
06 7.06
09 7.06
12 7.06
15 7.06
18 7.06
21 7.06
00 8.06
03 8.06
06 8.06
09 8.06
12 8.06
15 8.06
18 8.06
00 9.06
03 9.06
06 9.06
09 9.06
12 9.06
15 9.06
18 9.06
21 9.06
00 10.06
03 10.06
06 10.06
09 10.06
12 10.06
15 10.06
18 10.06
21 10.06
00 11.06
03 11.06
06 11.06
09 11.06
12 11.06
15 11.06
18 11.06
21 11.06
00 12.06
03 12.06
06 12.06
12 12.06
15 12.06
18 12.06
00 13.06
03 13.06
Ветер
(напр.,м/с)
Видим. Явления Облачность Т
(С)
Тd
(С)
f
(%)
Тe
(С)
Тes
(С)
Комфортность P
(гПа)
Po
(гПа)
Тmin
(С)
Tmax
(С)
R
(мм)
R24
(мм)
S
(см)
С 1 20 км 8/0
[Ac trans Ci ing]
+21.3 +16.3 73 +25 +30 комфорт 1008.3 993.0 +15.4 0.1
З 1 10 км слаб. ливневой дождь {гроза} 10/9 660 м
[Cb cap Ci fib]
+18.9 +17.2 90 +21 +23 комфорт 1010.0 994.5
З 3 20 км {гроза, ливн. дождь} 8/5 600 м
[Cb cap Ci ing]
+24.6 +13.8 51 +27 +32 жарко 1009.5 994.3
З 2 20 км 9/5 600 м
[Cb cap Ac trans Ci ing]
+23.1 +13.4 54 +26 +28 жарко 1010.8 995.5
З 2 15 км 3/0
[Ac cast Ci ing]
+19.3 +10.8 58 +21 +21 комфорт 1012.9 997.4 +25.6 1
З 1 10 км ясно +14.9 +10.9 77 +15 +15 тепло 1014.3 998.5
ЮЗ 1 10 км 4/0
[Ac trans]
+11.5 +10.5 94 +11 +11 тепло 1015.3 999.3
штиль 0 15 км 8/4 1000 м
[Sc Ac trans Ci fib]
+13.3 +11.0 86 +13 +13 тепло 1016.1 1000.2
З 1 20 км 5/0
[Ac lent Cc]
+17.7 +9.3 58 +19 +25 тепло 1016.6 1000.9 +11.3
СЗ 1 25 км 9/8 1080 м
[Cu med, cong Ci ing]
+18.6 +8.3 51 +20 +23 тепло 1016.6 1001.0
З 2 25 км 9/8 1080 м
[Cu med, cong Ac trans Ci ing]
+21.0 +8.6 45 +23 +25 комфорт 1015.8 1000.3
З 1 20 км 10/8 960 м
[Cb cap Ac trans]
+20.5 +8.2 45 +23 +23 комфорт 1015.1 999.6
С 1 15 км 10/0
[Ac trans Ci ing]
+16.5 +10.4 67 +17 +17 тепло 1014.6 998.9 +21.8
ЮЗ 1 10 км 5/0
[Ac trans]
+11.5 +10.2 92 +11 +11 по сезону 1014.9 998.9
Ю 1 10 км 8/0
[Ac trans]
+11.1 +10.5 96 +11 +11 тепло 1014.0 998.0
ЮЗ 1 9000 м слаб. ливневой дождь 10/3 600 м
[Cb cap Ac und]
+11.6 +10.9 95 +11 +12 тепло 1013.4 997.4
ЮЗ 2 10 км {ливн. дождь} 9/9 800 м
[Sc]
+13.3 +12.1 92 +13 +13 тепло 1013.0 997.2 +10.3 0.4
З 2 10 км в посл. час ливневой дождь 10/8 700 м
[Cb cap Ac und]
+14.7 +13.3 91 +14 +15 тепло 1012.9 997.1
СЗ 2 20 км {ливн. дождь} 8/8 1080 м
[Cb calv]
+18.7 +10.3 58 +20 +23 тепло 1012.4 996.8
З 2 20 км 8/8 1080 м
[Cu med, cong]
+19.0 +7.9 48 +20 +21 тепло 1011.5 996.0
З 1 15 км 8/3 600 м
[Sc Ac trans Ci]
+16.4 +8.2 58 +17 +17 тепло 1011.8 996.1 +20.0 1
штиль 0 8000 м дымка ясно +8.0 +7.7 98 +7 +7 по сезону 1012.3 996.1
Ю 1 10 км 3/0
[Ci fib]
+9.3 +9.1 99 +9 +9 по сезону 1010.9 994.8
Ю 3 15 км 4/0
[Ci ing]
+17.4 +9.4 59 +17 +23 тепло 1008.7 993.1 +7.4
Ю 3 20 км 9/3 1000 м
[Cu hum Ac und]
+19.5 +8.7 50 +21 +24 комфорт 1007.9 992.4
Ю 5 20 км 9/5 600 м
[Cb cap Ac und]
+17.9 +9.2 57 +18 +19 тепло 1007.2 991.7
Ю 4 15 км 9/8 900 м
[Sc Ac trans]
+18.2 +11.9 67 +18 +19 тепло 1006.0 990.5
Ю 2 10 км 9/9 840 м
[Sc]
+16.4 +12.5 78 +17 +17 тепло 1006.1 990.5 +19.7
ЮЗ 1 10 км {ливн. дождь} 8/8 800 м
[Sc]
+15.0 +13.5 91 +15 +15 тепло 1007.2 991.5
штиль 0 3500 м дымка {ливн. дождь} 4/3 600 м
[Sc Ac trans]
+12.7 +12.2 97 +12 +12 по сезону 1008.3 992.5
штиль 0 400 м туман, небо не видно ?/? +11.7 +11.5 99 +11 +11 прохладно 1008.3 992.4
В 2 9000 м дымка {туман} 3/0
[Ac trans Ci fib]
+17.6 +14.2 80 +18 +25 тепло 1007.8 992.3 +10.9 0.0
Ю 3 20 км 5/5 1000 м
[Cu med, cong]
+20.7 +14.8 69 +24 +30 комфорт 1006.8 991.5
ЮЗ 4 20 км 6/4 1000 м
[Cu med, cong Cc]
+23.0 +11.8 49 +25 +31 комфорт 1006.0 990.8
Ю 3 20 км 9/3 600 м
[Cb cap Ac trans Ci ing]
+22.7 +13.0 54 +26 +27 жарко 1005.0 989.8
Ю 2 15 км {ливн. дождь} 9/0 1000 м
[Ac und]
+19.3 +13.2 68 +21 +21 комфорт 1005.2 989.8 +24.3 0.0
СВ 1 7000 м слаб. дождь 10/10 900 м
[Ns]
+14.8 +14.0 95 +15 +15 по сезону 1004.7 989.1
СВ 1 2000 м дождь 10/10 240 м
[Frnb Ns]
+14.0 +13.5 97 +14 +14 тепло 1004.0 988.3
штиль 0 9000 м дымка {дождь} 9/9 300 м
[Sc]
+13.9 +13.5 97 +13 +14 по сезону 1003.5 987.8
С 1 20 км {дождь} 9/8 1000 м
[Cb cap Ci fib]
+17.3 +14.5 84 +18 +20 тепло 1004.3 988.8 +13.4 14
ЮЗ 2 25 км 8/5 1000 м
[Cb cap Ci ing]
+20.2 +14.4 69 +23 +30 комфорт 1005.5 990.1
З 2 25 км 8/8 1000 м
[Cu med, cong]
+22.5 +12.3 52 +25 +28 комфорт 1005.6 990.4
З 2 25 км 8/6 1000 м
[Cu med, cong Ci fib]
+23.2 +12.9 52 +26 +28 жарко 1005.6 990.4
З 1 15 км 8/0
[Ci fib]
+19.4 +12.7 65 +22 +22 комфорт 1006.3 990.9 +24.1
ЮЗ 1 10 км 8/5 600 м
[Sc Ac trans]
+16.0 +14.9 93 +17 +17 тепло 1007.6 992.0
З 1 10 км 10/6 600 м
[Sc Ac trans]
+16.4 +14.4 88 +17 +17 тепло 1008.1 992.5
З 2 10 км 10/0
[Ci ing]
+14.4 +12.4 88 +14 +15 по сезону 1010.0 994.3
З 2 20 км 9/0
[Ac As]
+15.3 +10.2 72 +15 +18 по сезону 1011.4 995.7 +13.9
З 2 20 км 10/6 1000 м
[Cu med, cong Ac und]
+19.3 +10.4 56 +21 +22 комфорт 1012.2 996.7
З 1 20 км 9/3 1000 м
[Cu hum Ac As]
+18.7 +9.7 56 +20 +22 тепло 1012.6 997.0
штиль 0 15 км 8/0
[Ci ing]
+15.8 +10.1 69 +16 +16 по сезону 1013.3 997.6 +20.2
ЮЗ 1 10 км 3/0
[Ci ing]
+10.1 +9.7 97 +9 +9 прохладно 1014.9 998.8
штиль 0 10 км 3/0
[Cc]
+11.1 +10.6 97 +10 +11 прохладно 1015.6 999.6
Местоположение метеостанции Полоцк (Витебская область, Беларусь): широта 55.48 долгота 28.75 высота над уровнем моря 133 м.
В архиве по умолчанию представлена погода в Полоцке за последнюю неделю. Архивные данные за месяц целиком и за предыдущие месяцы, начиная с января 2011 года, Вы можете получить, выбрав интересующий диапазон дат из раскрывающегося списка и нажав кнопку "Найти!".
*Определитесь, кто Вы:
Внимание! Время в таблицах - всемирное. Для получения местного времени необходимо прибавить поправку, которая равна 3 ч.
Некоторые строки с данными для отдельных станций могут быть выделены курсивом. Это означает, что фактические данные отсутствуют по различным причинам, а приведенные значения являются расчетными модельными данными для данного пункта наблюдений.
Смотрите также архив погоды в соседних городах и на ближайших метеорологических станциях:
Партнеры нашего сайта:      
Пояснения к столбцам:
  • Ветер - указаны скорость ветра в м/с - средняя за 10 мин, порывы в срок и между сроками (в фигурных скобках) и направление, откуда дует ветер: С - северный,
  • СВ - северо-восточный, В - восточный, ЮВ - юго-восточный, Ю - южный, ЮЗ - юго-западный, З - западный, СЗ - северо-западный.
  • Видимость - горизонтальная дальность видимости в метрах или километрах. При видимости от 1 до 10 км при отсутствии осадков обычно наблюдается дымка, при ухудшении видимости до 1 км и менее - туман. В сухую погоду видимость может ухудшаться дымом, пылью или мглою.
  • Явления - указаны атмосферные явления, наблюдавшиеся в срок или в последний час перед сроком; фигурными скобками обозначены явления, наблюдавшиеся между сроками (за 1-3 часа до срока); квадратными скобками обозначены град или гололедные отложения с указанием их диаметра в мм.
  • Облачность - указаны через наклонную черту общая и нижняя облачность в баллах и высота нижней границы облаков в метрах; квадратными скобками обозначены формы облаков: Ci - перистые, Cs - перисто-слоистые, Cc - перисто-кучевые, Ac - высококучевые, As - высокослоистые, Sc - слоисто-кучевые, Ns - слоисто-дождевые, Cu - кучевые, Cb - кучево-дождевые. Подробнее классификацию облаков см. в Атласе облаков (PDF).
  • T - Температура воздуха - температура, измеренная на высоте 2 м над землей.
  • Td - Температура точки росы - температура, при понижении до которой содержащийся в воздухе водяной пар достигнет насыщения.
  • f - Относительная влажность воздуха - влажноcть воздуха, измеренная на высоте 2 м над землей.
  • Te - Эффективная температура - температура, которую ощущает одетый по сезону человек в тени. Характеристика душности погоды. При расчете учитывается влияние влажности воздуха и скорости ветра на теплоощущения человека.
  • Tes - Эффективная температура на солнце - температура, которую ощущает человек, с поправкой на солнечный нагрев. Характеристика знойности погоды. Зависит от высоты солнца над горизонтом, облачности и скорости ветра. Ночью, в пасмурную погоду, а также при ветре 12 м/с и более поправка равна нулю.
  • P - Атмосферное давление - приведенное к уровню моря атмосферное давление.
  • Po - Атмосферное давление - измеренное на уровне метеостанции атмосферное давление.
  • Tmin - Минимальная температура - минимум температуры воздуха на высоте 2 м над землей.
  • Tmax - Максимальная температура - максимум температуры воздуха на высоте 2 м над землей.
  • R - Количество осадков - Количество выпавших осадков за период времени, мм. При наведении курсора мыши на число - период времени, за который выпало указанное количество осадков.
  • R24 - Количество осадков - Количество выпавших осадков за 24 часа, мм.
  • S - Снежный покров - Высота снежного покрова, см. При наведении курсора мыши на число - состояние снежного покрова и степень покрытия местности в баллах.